Regional Weather Roundup
Issued by NWS

Home | Current Version | Previous Version | Text Only | Print | Product List | Glossary On
Versions: 1 2 3 4 5 6 7 8 9 10 11 12 13 14 15 16 17 18 19 20 21 22 23 24 25 26 27 28 29 30 31 32 33 34 35 36 37 38 39 40 41 42 43 44 45 46 47 48 49 50
000
ASUS43 KLSX 220307
RWRMO

WEATHER SUMMARY FOR MISSOURI
NATIONAL WEATHER SERVICE SPRINGFIELD MO
1000 PM CDT MON OCT 21 2019

NOTE: "FAIR" INDICATES FEW OR NO CLOUDS BELOW 12,000 FEET WITH NO
       SIGNIFICANT WEATHER AND/OR OBSTRUCTIONS TO VISIBILITY.
       CURRENT SKY AND/OR WEATHER CONDITIONS ARE NOT AVAILABLE FOR
       CHILLICOTHE AND FARMINGTON.

MOZ001>031-035>038-043-044-053-054-220400-
...NORTHERN AND WESTERN MISSOURI...

CITY           SKY/WX    TMP DP  RH WIND       PRES   REMARKS
KANSAS CTY INT CLOUDY    50  39  66 NW16G30   29.79R
KANSAS C DTWN  CLOUDY    52  37  56 W16G35    29.79R
LEE`S SUMMIT   CLOUDY    52  37  56 W16G29    29.79R
ST JOSEPH      CLOUDY    49  39  68 W17G30    29.77R
CHILLICOTHE      N/A     52  40  63 W13G28    29.71R
KIRKSVILLE     CLOUDY    51  41  68 W16G28    29.64R

$$
MOZ066>068-077>081-088>096-101>105-220400-
...SOUTHWEST MISSOURI...

CITY           SKY/WX    TMP DP  RH WIND       PRES   REMARKS
SPRINGFIELD    CLEAR     53  35  50 W9        29.87R
JOPLIN         CLEAR     54  36  50 W14G23    29.91R

$$
MOZ032>034-039>042-045>050-055>058-069>072-220400-
...CENTRAL MISSOURI...

CITY           SKY/WX    TMP DP  RH WIND       PRES   REMARKS
COLUMBIA       PTCLDY    53  38  56 SW14      29.74R
JEFFERSON CITY PTCLDY    56  38  50 W13G22    29.76R
ROLLA          CLOUDY    52  39  61 SW10      29.78R
SEDALIA        CLOUDY    53  37  54 W13G23    29.77R
WHITEMAN AFB   MOCLDY    53  37  56 W23       29.72R
WARRENSBURG      N/A    N/A N/A N/A MISG        N/A
OSAGE BEACH    MOCLDY    55  39  54 W16       29.80R

$$
MOZ051-052-059>065-220400-
...EAST CENTRAL MISSOURI...

CITY           SKY/WX    TMP DP  RH WIND       PRES   REMARKS
ST LOUIS INTL  PTCLDY    57  39  51 SW13      29.74R
SPIRIT OF STL  PTCLDY    55  41  59 SW8       29.73R
ST CHARLES       N/A    N/A N/A N/A MISG      29.72R

$$
MOZ072>076-082>087-097>100-106>115-220400-
...SOUTH CENTRAL AND SOUTHEAST MISSOURI...

CITY           SKY/WX    TMP DP  RH WIND       PRES   REMARKS
CAPE GIRARDEAU FAIR      52  45  77 W7        29.82R
FARMINGTON     CLEAR     52  39  61 S6        29.79R
POPLAR BLUFF   FAIR      57  40  52 SW6       29.85R
WEST PLAINS    CLEAR     54  38  54 SW9G18    29.85R

$$



USA.gov is the U.S. government's official web portal to all federal, state and local government web resources and services.